Погода в Лосево

Россия / Санкт-Петербург и Ленинградская область     61°04′58″N   28°57′33″E
темп.,
°C
ветер,
м/с
пор.,
м/с
влажн.,
%
обл.,
%
осадки,
мм/ч
давл.,
гПа
погр.,
м
6 августа, пт
пт600:00+12всв227349 0.0 101730
03:00+10ссв23845 0.0 101764
06:00+10св288028 0.0 1016169
09:00+18всв47553 0.0 1016755
12:00+21всв57395 0.0 10161918
15:00+21всв573765 0.0 10152491
18:00+19всв59475 0.0 10151668
21:00+15всв38693 0.0 1015306
7 августа, сб
сб700:00+13св413822 0.0 1014657
03:00+14всв5127698 0.0 1014735
06:00+13всв5128259 0.0 1013729
09:00+14всв51184100 0.1 1012840
12:00+17всв61171100 0.0 1012948
15:00+16всв51292100 0.7 1010820
18:00+15в61497100 1.8 1008969
21:00+15в61497100 9.1 10081020
8 августа, вс
вс800:00+15в51198100 1.8 1007771
03:00+16в3899100 2.6 1008386
06:00+16в2699100 0.1 1008299
09:00+16в1399100 0.2 1009265
12:00+17вюв1296100 0.3 1010259
15:00+22юв136768 0.4 1011761
18:00+21ююз347257 0.1 1011582
21:00+17ююз2394100 0.3 101364
9 августа, пн
пн900:00+15в1197100 0.0 101313
03:00+15вюв229896 0.0 101361
06:00+15в2696100 0.0 1013163
09:00+18вюв2583100 0.1 1012355
12:00+21вюв366896 0.1 1012716
15:00+18юв2489100 0.3 1013144
18:00+19ю268995 0.1 1013531
21:00+17ю379735 0.4 1013351
10 августа, вт
вт1000:00+16юз399953 0.0 1014407
03:00+14ююз289931 0.0 1015219
06:00+14ю259818 0.0 1015118
09:00+19ююз467936 0.0 1016844
12:00+22ююз565770 0.1 10161501
15:00+22ююз4554100 0.1 10171510
18:00+21ююз3560100 0.0 1017970
21:00+17ю2283100 0.0 101747